Wind_Speed
27 27 27 27 28 29 29 28 28 29 29 27 26 25 26 26 27 28 30 32 34 36 38 38 39 41 43 46 47 48 50 50 51 52 54 56 57 57 58 58 58 56 55 54
26 26 26 28 29 30 31 29 29 28 29 27 25 25 25 25 25 26 28 30 32 34 35 36 36 38 41 42 44 46 48 49 49 50 51 53 55 56 57 57 57 57 57 56
27 27 27 28 29 30 30 30 29 29 28 27 27 25 23 23 24 25 26 28 30 31 33 35 34 34 36 38 41 42 44 45 44 47 50 52 53 55 56 56 56 56 57 57
29 29 29 29 29 31 30 30 30 28 29 27 28 28 22 23 23 24 24 25 26 27 29 31 33 32 33 35 38 40 42 41 42 44 48 51 52 53 54 55 55 54 56 57
29 29 29 30 31 32 32 32 31 29 28 28 27 27 24 25 24 24 24 24 24 25 26 28 31 30 30 33 36 39 40 41 41 43 45 47 49 51 52 53 54 54 54 56
29 30 31 31 32 32 32 32 32 30 29 28 27 28 28 27 26 25 25 24 23 23 24 26 28 29 29 32 34 36 37 39 40 41 44 44 45 49 52 54 53 53 54 54
28 29 30 31 31 32 33 33 33 32 31 29 29 29 29 28 26 26 26 26 23 23 23 25 26 27 27 29 31 33 35 36 39 40 41 43 44 47 50 52 52 52 53 53
29 29 30 31 32 33 33 34 33 33 32 31 29 28 27 27 26 26 26 26 24 24 23 24 25 26 26 28 30 31 32 34 36 39 40 40 42 45 47 49 49 49 50 51
30 30 30 31 32 33 33 33 32 32 34 33 31 28 26 26 26 26 25 25 24 24 24 24 25 25 26 27 28 28 30 32 34 36 38 39 41 44 46 47 48 48 48 48
31 31 30 31 32 33 33 33 33 33 34 35 33 30 28 27 27 27 26 25 24 24 24 25 24 24 25 25 26 27 29 30 31 33 34 36 39 42 44 47 48 48 47 47
32 32 31 31 32 32 32 33 34 34 34 35 34 30 29 29 29 29 27 25 25 24 23 23 22 22 24 24 26 26 28 30 31 34 35 35 38 42 44 46 48 47 46 46
33 32 32 31 32 33 34 34 34 34 34 35 36 32 30 29 29 29 28 25 24 23 22 22 23 22 23 24 25 28 28 29 30 32 34 35 37 40 43 46 47 48 46 45
34 34 33 33 33 34 35 35 35 35 36 35 36 34 31 30 29 28 28 26 24 23 22 22 22 22 23 24 25 27 29 30 31 32 33 35 36 38 41 45 47 47 45 44
35 34 34 34 34 34 35 35 35 35 36 36 35 34 30 30 29 28 27 26 24 24 24 23 23 23 24 24 25 26 28 28 29 31 32 34 36 37 39 43 45 44 43 43
35 35 35 34 34 34 35 35 35 35 36 37 35 34 32 31 30 29 28 27 26 25 24 23 22 22 23 25 26 28 28 29 29 31 32 33 35 37 39 43 45 45 42 42
36 36 36 35 35 36 36 35 35 35 36 36 36 34 33 31 31 30 29 29 28 26 25 24 23 24 25 26 26 27 29 30 30 31 32 33 34 36 37 40 44 45 44 43
37 37 38 37 37 38 37 36 36 36 36 36 36 35 33 31 30 30 30 29 28 27 26 24 24 24 25 26 27 27 27 29 30 31 33 33 34 35 35 38 41 42 42 43
38 38 39 39 39 39 38 37 37 37 36 36 36 35 34 33 31 31 30 29 28 28 27 27 26 26 27 27 27 27 28 29 30 31 32 33 34 35 35 36 40 39 39 40
38 39 40 40 40 41 38 38 38 38 36 36 36 35 34 33 32 31 30 30 29 29 28 27 26 26 26 27 28 28 28 28 29 30 31 33 34 35 35 36 36 39 39 37
39 39 40 41 42 42 40 39 39 39 38 37 36 35 35 33 32 30 30 30 30 29 29 28 27 26 26 26 27 27 28 28 29 30 31 32 33 34 35 35 36 37 37 36
40 40 41 42 43 43 41 40 40 40 39 37 36 36 36 34 33 32 31 31 31 31 29 29 28 26 26 26 27 26 27 27 28 29 30 31 31 32 34 34 35 36 37 37
41 42 42 42 43 42 41 41 41 41 40 38 37 37 36 35 33 32 32 31 32 31 30 29 29 27 26 26 26 26 26 26 27 29 29 30 31 32 33 33 34 35 36 38
42 42 43 44 43 42 42 42 42 41 40 39 38 38 37 36 34 33 33 32 32 31 30 29 29 28 26 25 25 26 25 26 26 27 28 29 30 31 32 32 32 34 36 37
43 43 44 44 43 42 42 42 42 42 41 39 38 38 37 36 35 34 33 33 32 31 29 29 29 27 26 26 26 25 25 26 26 26 27 28 28 30 31 31 31 32 35 37
43 43 44 43 42 43 42 42 42 41 40 39 38 38 37 37 36 34 33 32 32 30 29 28 27 26 26 26 26 26 25 26 27 27 28 28 28 29 30 31 32 31 33 35
41 42 43 43 43 44 42 41 41 40 39 39 39 38 38 37 36 34 33 32 31 30 28 28 27 26 25 25 26 27 27 27 27 27 28 29 29 29 30 32 32 32 33 35
Wind_Direction
327 328 327 326 326 327 324 321 318 317 313 310 306 304 302 296 290 285 280 273 268 266 262 258 256 254 250 247 247 244 242 240 239 238 237 236 235 234 233 233 232 232 232 234
329 329 330 330 330 330 328 323 321 320 319 315 312 312 307 301 296 290 285 278 274 271 266 260 258 255 252 249 246 243 241 240 239 236 236 236 234 233 232 230 230 229 230 231
331 332 333 335 334 333 331 327 326 324 322 317 315 315 309 303 301 296 291 285 279 276 270 264 259 254 251 248 245 242 239 238 238 237 235 235 233 232 230 228 227 227 229 230
332 332 332 333 334 335 335 332 328 325 322 321 318 317 315 308 304 300 296 291 285 279 272 266 261 257 253 248 243 240 238 238 237 237 235 234 233 232 231 228 226 226 228 229
333 333 333 332 332 334 335 334 330 326 324 322 320 319 321 315 309 306 301 296 290 286 279 269 263 260 255 249 244 240 239 238 237 236 235 234 233 231 228 226 225 225 226 228
332 332 333 333 332 332 333 334 331 327 326 325 324 320 321 318 315 311 306 301 296 292 284 273 264 261 256 249 244 240 238 240 239 237 235 234 233 230 227 226 224 225 226 227
332 331 331 332 332 331 331 333 332 329 328 327 327 324 323 321 318 314 309 304 299 297 290 282 271 263 258 250 244 240 239 240 240 237 235 235 234 230 226 224 224 225 226 228
329 331 330 331 332 332 332 333 332 329 327 325 325 324 325 322 319 315 311 307 305 300 293 285 275 267 257 250 244 243 241 239 237 235 235 237 234 230 226 223 223 224 225 227
328 330 330 330 332 332 332 331 330 327 326 323 323 322 322 321 317 314 312 309 307 301 293 288 277 264 255 247 246 245 244 242 239 236 237 238 234 228 225 225 223 224 225 226
325 326 328 329 330 331 330 330 329 328 326 325 324 323 324 321 317 315 312 308 306 300 293 286 275 264 255 251 247 243 242 241 239 236 234 233 230 228 227 227 224 223 224 226
323 323 325 327 328 329 329 329 327 325 324 323 323 325 324 321 318 316 315 311 305 300 292 281 270 260 256 255 251 246 245 243 240 237 232 232 228 229 227 226 226 224 224 226
322 322 324 325 325 325 325 326 325 325 323 322 321 323 323 319 317 314 313 310 305 300 294 285 275 266 261 256 253 250 249 245 240 237 233 230 227 227 226 225 224 222 223 226
320 322 322 324 324 324 324 324 323 322 321 320 320 321 320 317 314 312 310 308 304 299 295 286 280 269 262 259 257 252 248 247 243 239 236 231 229 229 227 224 223 223 225 227
316 318 320 321 322 322 323 322 322 321 320 319 320 319 317 313 311 309 306 305 302 297 293 286 280 269 266 264 260 253 248 248 245 240 237 234 232 231 229 225 225 225 225 227
312 314 316 317 318 318 319 320 319 318 318 318 319 318 315 310 309 307 305 302 299 296 292 284 276 268 264 263 261 253 250 248 245 240 237 237 235 233 232 229 226 225 226 227
310 311 312 313 314 314 316 318 317 316 316 316 317 317 313 309 307 307 304 302 298 294 290 283 274 269 265 263 261 255 251 248 246 242 240 239 237 234 233 231 228 227 227 229
308 309 309 310 311 312 315 317 315 314 314 314 315 315 312 309 306 305 302 300 296 293 288 282 274 272 269 265 260 256 253 250 247 244 241 239 237 234 232 229 228 228 229 229
305 306 307 308 309 311 315 314 314 313 313 313 312 312 311 309 306 303 302 299 295 291 287 280 274 271 270 265 259 255 254 251 248 244 241 239 237 234 231 229 230 228 229 229
302 304 305 307 308 311 313 313 312 312 311 310 309 310 308 307 305 301 298 297 295 292 288 281 277 273 267 263 258 256 254 251 247 245 242 240 237 235 233 231 231 230 229 229
301 302 303 305 307 310 313 311 311 310 309 309 308 308 307 306 302 299 296 294 293 291 287 282 278 275 270 264 259 256 253 249 246 244 243 242 240 236 233 232 231 232 230 230
299 300 302 304 305 307 310 310 309 308 310 308 307 307 307 305 303 298 295 293 290 289 285 282 279 278 272 265 261 257 252 248 244 243 243 241 238 237 233 231 232 232 232 232
298 299 301 302 304 308 308 306 306 306 306 306 306 306 306 304 302 298 294 291 289 287 284 282 279 277 274 267 262 256 252 248 244 243 243 243 240 239 236 233 232 233 232 232
295 298 299 301 303 305 305 303 303 303 304 304 304 304 303 302 300 296 292 290 288 286 284 281 278 277 274 267 260 256 251 247 245 245 244 243 242 241 240 236 234 233 232 232
295 297 297 299 302 301 301 301 301 301 301 301 301 301 301 301 298 295 292 288 286 285 283 281 278 275 271 267 262 255 251 248 247 247 245 244 244 243 240 237 235 234 233 233
296 296 296 297 299 298 299 299 299 299 299 298 299 299 299 300 297 293 290 287 284 282 281 279 277 273 268 263 259 254 252 249 248 247 246 244 244 242 240 237 236 235 232 232
294 294 295 295 296 296 298 298 297 298 299 297 297 298 298 298 295 292 290 286 282 280 278 276 274 273 267 261 258 255 252 251 249 247 246 244 243 241 240 238 238 235 232 231
Height
5708 5704 5697 5692 5686 5681 5675 5670 5665 5661 5655 5652 5648 5644 5641 5637 5634 5632 5630 5629 5628 5628 5628 5629 5631 5632 5635 5638 5641 5646 5651 5655 5659 5664 5670 5676 5683 5691 5699 5707 5715 5723 5730 5736
5704 5698 5693 5687 5681 5675 5670 5665 5660 5657 5650 5646 5643 5640 5635 5631 5628 5625 5623 5620 5619 5618 5617 5617 5619 5620 5622 5626 5629 5632 5637 5641 5645 5650 5656 5662 5669 5676 5685 5693 5701 5709 5717 5723
5699 5695 5688 5683 5678 5672 5666 5661 5656 5651 5646 5642 5638 5636 5631 5626 5622 5619 5616 5613 5611 5609 5608 5608 5608 5610 5612 5615 5617 5620 5624 5628 5633 5638 5643 5649 5654 5662 5670 5678 5687 5696 5704 5711
5695 5690 5685 5679 5674 5668 5663 5658 5652 5646 5641 5638 5633 5629 5627 5621 5617 5613 5609 5606 5603 5602 5600 5599 5599 5600 5602 5604 5606 5609 5613 5617 5622 5626 5631 5636 5642 5650 5659 5667 5675 5683 5691 5698
5691 5686 5681 5675 5670 5664 5659 5653 5648 5642 5637 5633 5628 5623 5622 5616 5612 5607 5604 5600 5597 5595 5594 5592 5592 5592 5593 5594 5596 5600 5604 5607 5611 5616 5620 5625 5631 5639 5647 5655 5663 5671 5678 5686
5687 5682 5677 5671 5665 5660 5654 5650 5644 5639 5634 5630 5624 5619 5615 5610 5606 5602 5599 5595 5591 5589 5587 5585 5585 5585 5585 5586 5588 5591 5595 5598 5602 5606 5610 5614 5620 5627 5635 5643 5651 5659 5667 5675
5684 5679 5673 5667 5662 5657 5651 5645 5640 5634 5628 5625 5619 5614 5611 5606 5601 5597 5593 5590 5586 5583 5581 5579 5578 5578 5578 5579 5580 5584 5587 5590 5593 5596 5600 5605 5610 5616 5624 5633 5641 5648 5656 5664
5678 5674 5669 5662 5657 5652 5646 5641 5635 5628 5623 5619 5616 5610 5607 5602 5597 5592 5589 5584 5581 5578 5576 5574 5573 5572 5572 5573 5574 5577 5579 5582 5584 5588 5592 5596 5600 5607 5615 5623 5631 5639 5646 5654
5672 5669 5664 5658 5652 5647 5641 5636 5631 5624 5618 5613 5610 5606 5602 5597 5593 5588 5584 5579 5576 5573 5571 5568 5567 5566 5566 5567 5568 5570 5572 5574 5577 5580 5583 5587 5592 5598 5606 5614 5622 5630 5637 5645
5667 5663 5660 5654 5648 5643 5637 5631 5626 5619 5612 5607 5604 5600 5597 5592 5587 5583 5579 5575 5571 5568 5565 5563 5561 5561 5561 5562 5563 5564 5565 5567 5570 5572 5576 5580 5585 5591 5598 5605 5613 5621 5629 5635
5662 5658 5654 5649 5643 5638 5633 5627 5620 5614 5608 5602 5596 5598 5593 5586 5581 5577 5573 5569 5565 5562 5559 5557 5556 5555 5555 5556 5557 5558 5559 5561 5563 5566 5569 5573 5578 5584 5590 5597 5605 5612 5619 5627
5656 5652 5648 5644 5638 5632 5627 5621 5616 5611 5605 5597 5590 5593 5587 5581 5575 5571 5567 5564 5560 5557 5554 5552 5551 5551 5550 5550 5551 5551 5552 5553 5556 5558 5562 5566 5571 5576 5582 5590 5597 5604 5610 5617
5650 5646 5642 5638 5634 5627 5621 5615 5609 5604 5599 5593 5586 5586 5581 5575 5570 5566 5562 5558 5555 5552 5549 5547 5545 5545 5544 5544 5544 5545 5545 5547 5549 5551 5554 5559 5564 5569 5575 5582 5588 5595 5602 5609
5643 5640 5636 5632 5626 5620 5616 5610 5604 5597 5592 5587 5582 5577 5575 5569 5564 5561 5557 5553 5550 5547 5544 5542 5540 5539 5538 5538 5538 5538 5539 5541 5543 5545 5548 5552 5557 5562 5567 5574 5580 5586 5594 5600
5636 5633 5629 5625 5620 5615 5610 5605 5599 5592 5586 5581 5577 5571 5567 5562 5557 5554 5550 5547 5543 5541 5538 5536 5534 5533 5532 5532 5532 5532 5533 5535 5537 5539 5541 5545 5549 5554 5559 5565 5571 5578 5585 5591
5628 5625 5621 5618 5613 5607 5603 5599 5593 5587 5581 5575 5569 5566 5561 5556 5551 5547 5543 5540 5536 5534 5531 5529 5528 5526 5526 5526 5526 5526 5526 5528 5530 5532 5535 5538 5541 5546 5552 5557 5563 5569 5576 5582
5620 5616 5612 5609 5605 5599 5596 5592 5585 5580 5574 5569 5563 5560 5554 5549 5544 5540 5536 5532 5529 5526 5524 5522 5520 5519 5518 5518 5518 5519 5519 5521 5523 5525 5528 5531 5534 5539 5544 5549 5555 5561 5567 5573
5611 5607 5602 5599 5596 5591 5591 5583 5577 5571 5567 5561 5555 5551 5546 5542 5538 5533 5529 5525 5522 5519 5516 5514 5513 5512 5511 5510 5511 5511 5512 5514 5515 5518 5521 5524 5528 5532 5536 5541 5547 5553 5558 5564
5603 5598 5593 5589 5584 5582 5581 5574 5567 5562 5559 5554 5548 5543 5539 5534 5530 5527 5522 5518 5515 5511 5509 5507 5505 5504 5503 5502 5503 5503 5505 5506 5508 5510 5513 5517 5520 5525 5529 5533 5539 5544 5550 5556
5593 5589 5585 5579 5573 5571 5572 5564 5557 5553 5550 5546 5540 5535 5531 5526 5522 5520 5515 5511 5507 5504 5501 5499 5497 5496 5495 5495 5495 5495 5496 5498 5501 5503 5506 5509 5512 5516 5521 5525 5530 5536 5542 5548
5583 5579 5575 5569 5563 5561 5560 5554 5548 5544 5541 5535 5530 5526 5522 5517 5513 5510 5506 5503 5499 5496 5493 5491 5490 5489 5488 5487 5487 5488 5489 5491 5493 5496 5498 5501 5504 5508 5512 5517 5522 5527 5533 5539
5573 5569 5565 5560 5554 5554 5549 5543 5538 5534 5529 5525 5520 5516 5512 5508 5504 5501 5497 5494 5491 5488 5485 5483 5482 5481 5480 5480 5480 5480 5481 5483 5485 5488 5491 5494 5497 5500 5504 5509 5514 5519 5524 5530
5563 5560 5554 5551 5549 5544 5537 5532 5528 5523 5519 5515 5511 5507 5503 5499 5495 5492 5488 5485 5483 5480 5478 5475 5474 5473 5473 5472 5472 5473 5474 5476 5478 5481 5483 5486 5490 5493 5497 5501 5506 5510 5516 5521
5552 5548 5543 5539 5538 5533 5527 5522 5518 5513 5508 5505 5501 5497 5493 5489 5485 5482 5479 5476 5474 5471 5469 5467 5466 5465 5465 5464 5464 5465 5467 5469 5471 5473 5476 5479 5482 5485 5488 5492 5497 5502 5507 5513
5541 5535 5531 5527 5526 5520 5517 5512 5507 5503 5498 5495 5491 5487 5483 5479 5476 5472 5469 5467 5464 5463 5461 5459 5458 5457 5457 5457 5457 5458 5459 5461 5464 5466 5468 5471 5474 5477 5480 5484 5488 5493 5498 5503
5530 5524 5519 5516 5513 5508 5507 5502 5497 5493 5489 5485 5481 5477 5473 5469 5466 5463 5460 5457 5455 5453 5452 5451 5450 5449 5449 5449 5449 5450 5452 5454 5456 5458 5460 5463 5465 5469 5472 5476 5480 5484 5489 5494